Location: Asheville, NC
(35.6000°N, 82.5500°W)
Time: 00:29:45
(UTC-04:00)

Vanguard 2 - Pass Details

Date: 17 March 2018
Orbit: 553 x 2939 km, 32.9° (Epoch: 18 June)

Event Time Altitude Azimuth Distance (km) Brightness Sun altitude
Rises 08:52:01 0° 207° (SSW) 4,414 11.3 14.1°
Reaches altitude 10° 08:55:00 10° 197° (SSW) 3,749 11.0 14.7°
Maximum altitude 09:03:51 32° 138° (SE) 3,133 11.7 16.4°
Drops below altitude 10° 09:16:31 10° 84° (E) 5,426 13.3 18.9°
Sets 09:21:53 0° 76° (ENE) 6,655 13.3 20.0°
